Flag for Colombia Weather past 2 weeks in Villavicencio, Colombia

Now
64 °F

Partly sunny.


Feels Like: 64 °F
Forecast: N/A
Wind: 6 mph from Southeast

Location: Bogota / Eldorado

Current Time: Sep 2, 2014 at 5:07:52 PM

Latest Report: Sep 2, 2014 at 4:00 PM


Visibility: N/A

Pressure: 30.25 "Hg

Humidity: 52%

Dew point: 46 °F

Location of VillavicencioLocation

Historic Weather in Villavicencio — Graph

°F

Villavicencio temperature yesterday

Maximum temperature yesterday: 70 °F (at 3:00 PM)
Minimum temperature yesterday: 48 °F (at 1:00 AM)
Average temperature yesterday: 58 °F

Past Weeks' High & Low Weather Summary

 TemperatureHumidityPressure
High70 °F (Sep 1, 3:00 PM)100% (Aug 21, 4:00 AM)30.44 "Hg (Aug 21, 4:00 AM)
Low36 °F (Aug 30, 6:00 AM)30% (Aug 30, 10:00 AM)30.20 "Hg (Aug 25, 4:00 PM)
Average56 °F72%30.33 "Hg
* Reported Aug 18 4:00 PM — Sep 2 4:00 PM, Villavicencio, Weather by CustomWeather, © 2014

Note: Actual official high and low records may vary slightly from our data, if they occured in-between our weather recording intervals... More about our weather records

Advertising

Villavicencio weather history for previous 24 hours

 ConditionsComfort  
Time TempWeatherWind HumidityBarometerVisibility
4:00 PM
Sep 2
64 °FPartly sunny.6 mph52%30.25 "HgN/A
3:00 PM63 °FPartly sunny.14 mph59%30.27 "HgN/A
2:00 PM64 °FPartly sunny.8 mph52%30.28 "HgN/A
1:00 PM63 °FPartly sunny.6 mph64%30.31 "HgN/A
12:00 PM59 °FScattered showers. Partly sunny.12 mph77%30.35 "HgN/A
11:00 AM55 °FScattered showers. Partly sunny.7 mph94%30.38 "HgN/A
10:00 AM55 °FDrizzle. Partly sunny.6 mph82%30.38 "Hg2 mi
9:00 AM57 °FScattered showers. Partly sunny.9 mph77%30.36 "HgN/A
8:00 AM55 °FScattered clouds.5 mph77%30.35 "HgN/A
7:00 AM50 °FPartly sunny.3 mph88%30.32 "HgN/A
6:00 AM46 °FScattered clouds.5 mph93%30.29 "HgN/A
5:00 AM45 °FPassing clouds.5 mph100%30.31 "HgN/A
4:00 AM45 °FPassing clouds.5 mph100%30.28 "HgN/A
3:00 AM46 °FPassing clouds.5 mph100%30.29 "HgN/A
2:00 AM48 °FPassing clouds.7 mph94%30.31 "HgN/A
1:00 AM48 °FPassing clouds.2 mph87%30.33 "HgN/A
12:00 AM50 °FPassing clouds.2 mph88%30.36 "HgN/A
11:00 PM
Sep 1
50 °FPassing clouds.5 mph88%30.38 "HgN/A
10:00 PM55 °FPassing clouds.5 mph72%30.38 "HgN/A
9:00 PM57 °FPassing clouds.5 mph67%30.36 "HgN/A
8:00 PM57 °FPassing clouds.5 mph67%30.34 "HgN/A
7:00 PM61 °FPassing clouds.2 mph55%30.32 "HgN/A
6:00 PM63 °FScattered clouds.9 mph59%30.28 "HgN/A
5:00 PM64 °FPartly sunny.14 mph52%30.26 "HgN/A
Weather by CustomWeather, © 2014

See weather overviewHow to use our weather pages